This is the latest recevied weather packets stored in our database for station/object KI5GCD-13. If no packets are shown the sender has not sent any weather packets the latest 10 day(s).
| Time | Temp. | Humidity | Pressure | Rain* | Wind** | Luminosity | Snow |
|---|---|---|---|---|---|---|---|
| 1777682687 | 15.56° C | 54% | 1013.7 hPa | 0 mm | 0 m/s | - | - |
| 1777682387 | 16.11° C | 55% | 1013.7 hPa | 0 mm | 0 m/s | - | - |
| 1777682087 | 16.11° C | 48% | 1013.4 hPa | 0 mm | 0 m/s | - | - |
| 1777681787 | 16.11° C | 42% | 1013.4 hPa | 0 mm | 0 m/s | - | - |
| 1777681487 | 16.67° C | 41% | 1013.2 hPa | 0 mm | 0 m/s | - | - |
| 1777681188 | 16.67° C | 41% | 1013.1 hPa | 0 mm | 0 m/s | - | - |
| 1777680887 | 16.67° C | 40% | 1013.4 hPa | 0 mm | 0.89 m/s, 177° | - | - |
| 1777680588 | 16.67° C | 41% | 1013.1 hPa | 0 mm | 0.89 m/s, 210° | - | - |
| 1777680287 | 16.67° C | 40% | 1013.2 hPa | 0 mm | 0.45 m/s, 265° | - | - |
| 1777679987 | 17.22° C | 39% | 1013.1 hPa | 0 mm | 0.45 m/s, 290° | - | - |
| 1777679687 | 17.22° C | 38% | 1013.2 hPa | 0 mm | 0.45 m/s, 260° | - | - |
| 1777679387 | 17.22° C | 38% | 1013 hPa | 0 mm | 1.34 m/s, 5° | - | - |
| 1777679088 | 17.22° C | 37% | 1013.1 hPa | 0 mm | 0.89 m/s, 139° | - | - |
| 1777678787 | 17.22° C | 38% | 1013.2 hPa | 0 mm | 1.79 m/s, 119° | - | - |
| 1777678487 | 17.22° C | 38% | 1013.1 hPa | 0 mm | 0.45 m/s, 71° | - | - |
| 1777678187 | 17.22° C | 39% | 1013.3 hPa | 0 mm | 0.89 m/s, 67° | - | - |
| 1777677887 | 17.22° C | 37% | 1013 hPa | 0 mm | 0.89 m/s, 155° | - | - |
| 1777677587 | 17.22° C | 36% | 1013.1 hPa | 0 mm | 1.34 m/s, 67° | - | - |
| 1777677287 | 17.78° C | 36% | 1013.1 hPa | 0 mm | 1.34 m/s, 353° | - | - |
| 1777676987 | 17.78° C | 35% | 1013.1 hPa | 0 mm | 1.34 m/s, 266° | - | - |
| 1777676687 | 17.78° C | 38% | 1013.3 hPa | 0 mm | 0.89 m/s, 284° | - | - |
| 1777676387 | 17.78° C | 38% | 1013 hPa | 0 mm | 1.34 m/s, 332° | - | - |
| 1777676087 | 17.78° C | 35% | 1013 hPa | 0 mm | 1.79 m/s, 40° | - | - |
| 1777675787 | 17.78° C | 34% | 1013.1 hPa | 0 mm | 1.34 m/s, 285° | - | - |
| 1777675487 | 17.78° C | 35% | 1013 hPa | 0 mm | 1.79 m/s, 13° | - | - |
* Rain latest hour (hover to see other rain measurements)
** Current wind speed in m/s (hover to see current wind gust speed)